Wind_Speed
12 11 11 10 10 10 10 10 9 9 9 9 9 9 9 9 9 9 9 9 7 8 8 8 10 11 12 13 14 15 17 17 15 13 12 12 12 11 9 10 10 10 11 7 6 6 8 10 12 14 11 7 3 3 6 6 4 3 3 3 4 4 7 7 6 4 1 2 2 5 3 7 9 7 3 5 13 15 16 14 14 15 14 17 21 29 32 31
12 12 11 11 10 10 10 9 9 9 9 9 9 9 9 9 9 9 9 8 7 8 8 8 10 11 12 12 13 15 17 17 15 15 20 17 13 16 12 10 11 12 11 7 7 8 8 7 9 11 6 3 3 4 4 3 3 3 3 3 5 5 9 8 8 9 2 2 5 3 5 4 7 6 2 5 11 14 16 13 15 17 14 16 21 25 28 28
12 11 11 11 10 10 9 9 9 9 9 9 9 9 9 8 9 9 8 8 7 8 9 10 10 11 12 11 12 14 15 14 10 12 19 18 15 19 18 13 12 13 12 10 9 11 12 12 12 9 5 4 4 4 5 3 3 4 3 3 5 8 10 9 9 11 2 4 6 2 5 5 6 5 1 6 9 10 14 13 13 15 13 13 14 18 22 24
12 11 11 11 11 10 10 9 9 9 9 9 9 9 8 8 8 9 8 8 8 8 9 9 10 10 11 11 12 13 11 8 4 7 11 13 16 18 18 15 12 12 12 10 10 12 15 16 14 7 5 4 5 6 6 4 3 4 4 5 8 7 9 8 6 9 5 5 5 5 5 5 6 5 3 7 6 4 9 15 17 18 18 16 12 13 17 16
12 12 11 11 10 10 10 9 9 9 9 9 9 9 8 8 8 8 8 8 8 8 9 9 10 10 10 11 11 10 7 3 2 4 5 10 14 13 13 11 9 9 8 7 8 11 15 15 12 7 5 4 5 5 6 8 7 3 5 10 11 8 8 7 6 10 9 7 6 5 5 2 4 4 5 7 5 2 5 14 19 19 18 18 15 12 12 11
13 12 11 11 10 10 10 10 10 9 9 9 9 9 9 8 8 8 7 7 8 8 9 9 10 9 10 11 9 6 2 1 3 5 10 11 12 11 9 8 8 8 6 5 8 10 12 11 8 6 4 4 6 6 7 9 9 4 6 9 11 11 10 4 4 7 9 9 7 4 3 1 3 3 4 7 6 3 4 13 18 17 17 18 16 12 10 9
13 12 11 11 10 10 10 10 10 9 9 9 9 9 8 8 8 7 7 7 7 8 8 9 9 10 11 10 5 2 1 5 9 6 10 10 10 9 8 7 8 7 7 7 8 8 8 9 8 5 4 5 7 9 9 9 9 7 6 8 9 10 9 2 5 5 6 7 7 5 3 1 3 2 3 8 8 12 17 18 19 18 18 17 13 10 10 9
12 12 11 11 10 10 10 10 9 9 9 9 9 8 8 8 7 7 7 7 7 7 8 8 8 9 11 8 2 1 3 10 12 9 10 10 10 8 8 8 9 9 10 11 11 10 9 9 8 5 5 6 7 9 9 8 7 8 7 6 7 7 3 6 7 4 4 5 5 7 5 3 2 3 4 7 8 15 21 19 18 17 14 14 11 10 10 8
12 12 11 11 10 10 10 9 9 9 10 9 9 8 7 8 8 7 7 7 7 7 8 7 7 8 8 6 2 3 5 9 11 11 11 11 10 8 8 8 10 12 12 15 16 14 10 8 9 7 6 6 8 9 7 7 5 8 8 5 6 4 0 6 7 3 2 2 3 5 5 6 3 3 4 6 8 13 20 19 17 16 13 12 10 10 9 9
12 11 11 11 10 10 10 10 9 9 10 9 9 8 8 7 7 7 7 7 7 7 7 6 6 7 6 4 2 3 4 8 11 11 11 11 10 9 9 9 12 14 13 15 18 17 11 8 8 6 6 5 7 9 8 7 5 6 6 6 6 1 1 3 5 4 4 2 2 1 3 7 4 2 1 2 7 10 16 18 16 15 13 12 10 9 8 9
13 12 11 10 10 10 9 9 10 10 10 10 10 9 9 7 7 6 6 7 7 7 6 6 6 7 6 4 2 4 6 12 10 9 11 10 10 11 11 11 14 18 17 15 17 19 14 12 9 3 3 3 6 8 8 6 5 3 1 4 6 1 2 4 5 1 2 3 5 3 2 5 4 2 4 4 6 8 12 16 16 14 13 12 11 9 7 8
13 12 11 10 10 10 10 11 11 11 11 11 11 10 9 8 7 6 6 6 6 6 6 6 5 5 6 4 5 8 7 8 9 11 12 10 12 13 13 14 16 19 17 12 13 14 12 13 9 4 3 4 7 6 6 9 2 2 3 3 7 4 2 4 6 3 3 4 5 4 1 5 6 4 7 7 7 7 10 14 15 13 12 12 10 8 7 9
12 11 11 11 11 11 12 13 13 13 13 12 12 11 10 8 7 6 6 6 5 5 5 5 4 4 4 2 8 10 7 8 10 14 13 11 11 12 13 12 11 13 13 12 14 15 15 14 7 3 5 5 5 4 4 9 3 3 1 2 4 5 4 5 7 6 5 5 7 6 1 5 7 8 9 8 9 8 8 10 12 12 11 12 10 8 8 10
12 11 11 12 12 12 13 14 14 14 13 12 11 10 10 8 7 6 6 5 5 5 5 5 4 2 1 5 12 10 8 10 11 14 13 11 12 14 14 10 8 11 12 14 14 14 13 13 9 4 5 5 5 5 5 6 2 2 1 2 2 3 5 7 8 8 6 5 8 8 2 6 7 10 11 7 11 11 8 7 10 11 11 11 10 10 9 10
11 11 11 11 12 13 14 14 15 14 12 11 10 9 8 7 7 6 5 5 4 4 5 5 3 1 1 7 13 10 10 9 9 13 12 13 14 12 14 14 12 12 13 13 12 12 13 10 7 3 4 6 5 4 4 4 2 2 1 4 3 4 6 8 7 12 9 5 10 9 3 6 7 9 10 7 13 13 10 8 8 11 12 12 10 10 10 9
11 11 10 11 12 13 14 14 14 14 12 10 9 9 7 6 6 5 5 5 3 3 3 4 5 5 1 5 7 4 8 9 11 14 13 14 15 12 13 15 14 14 13 12 11 12 12 6 3 3 4 5 3 3 3 4 4 1 4 4 4 4 6 7 6 15 13 6 8 9 4 4 5 6 6 5 14 13 10 7 7 11 12 12 9 9 10 9
11 10 10 11 11 13 14 14 13 13 11 9 9 9 7 6 5 4 5 4 3 4 5 5 4 5 4 7 7 3 7 11 13 16 15 13 15 15 13 10 8 10 10 10 12 9 7 3 2 2 2 2 2 2 2 3 5 3 2 3 5 6 6 5 5 12 12 8 7 7 5 5 6 4 4 5 9 9 8 7 7 9 11 10 9 9 10 11
10 10 10 10 11 12 13 14 14 12 10 9 8 9 8 7 5 4 3 2 1 3 6 9 4 1 4 7 8 7 11 12 9 10 12 11 12 14 11 6 4 6 5 6 7 5 2 1 2 1 3 2 3 1 2 5 3 2 2 1 4 6 6 5 4 8 11 10 8 8 7 8 7 4 3 6 8 8 6 7 7 8 10 11 9 10 11 11
11 10 9 10 10 11 12 13 15 14 11 9 8 9 9 6 5 4 3 2 1 0 2 4 5 2 3 6 10 6 6 9 7 5 7 9 10 10 11 10 5 4 3 2 4 4 3 0 1 2 3 3 4 3 5 5 1 1 2 1 3 5 5 6 2 6 10 9 7 8 8 8 7 5 7 7 8 10 9 7 7 7 9 10 9 8 11 12
11 10 9 9 9 10 11 12 14 16 15 13 10 9 6 3 2 1 2 4 5 7 7 5 8 5 6 4 4 5 7 6 5 5 8 9 9 7 7 8 4 2 2 3 4 4 4 2 2 4 6 7 4 3 3 2 3 3 3 3 5 5 5 7 5 2 5 5 5 6 7 7 7 5 5 6 5 7 9 8 6 7 8 9 10 9 10 12
11 10 9 8 9 9 10 11 13 16 17 15 10 5 3 3 2 1 2 5 10 15 14 12 12 11 11 7 5 5 2 3 4 6 11 11 8 5 3 4 3 3 4 5 4 2 3 4 6 7 8 8 5 4 5 4 6 4 3 3 5 5 5 5 3 3 4 4 3 2 2 5 6 5 4 2 5 5 7 9 7 7 9 8 10 10 9 9
11 10 9 9 9 9 10 11 12 16 17 15 8 2 4 4 4 7 6 3 8 13 15 17 17 11 12 12 2 2 5 2 5 7 10 12 7 4 3 5 4 4 5 5 2 1 2 4 8 9 5 4 3 3 6 5 4 4 3 3 3 4 6 5 3 5 7 4 2 6 5 5 6 6 7 4 4 6 7 9 9 9 9 9 10 10 9 8
11 10 10 9 9 10 11 12 13 17 18 13 5 6 7 7 7 10 7 3 6 10 12 13 14 8 9 12 6 5 4 4 6 6 12 10 5 5 4 4 5 6 5 5 5 3 3 5 9 8 4 1 2 2 6 5 3 2 1 2 2 4 4 5 3 4 4 2 1 4 5 5 6 6 7 8 7 6 7 10 10 9 9 9 10 9 9 9
11 10 9 8 10 10 12 14 15 17 17 13 11 13 11 8 8 9 5 2 4 7 9 9 10 6 4 4 6 7 3 4 5 4 12 9 3 5 4 4 5 5 5 7 9 7 6 6 6 6 5 3 2 3 4 4 3 4 2 2 3 4 5 5 3 1 2 2 1 1 5 5 5 6 7 8 8 6 8 11 9 7 7 8 8 8 8 9
11 10 9 9 9 9 12 14 12 13 14 12 12 12 8 8 8 8 3 2 3 4 5 5 5 1 1 6 6 4 3 5 4 4 10 8 4 3 3 4 4 4 6 8 7 7 9 7 7 7 5 3 1 3 1 3 1 4 4 5 6 6 8 8 4 1 4 5 3 1 2 5 5 7 9 7 7 7 6 11 11 8 7 6 6 7 6 7
11 10 9 8 8 9 10 7 8 14 11 7 7 10 8 9 11 8 2 1 2 2 1 0 2 1 0 4 4 1 4 6 4 11 10 7 6 2 1 2 2 4 7 6 3 2 4 4 7 7 4 4 4 2 1 4 3 2 4 5 6 6 7 10 8 2 2 2 4 3 3 5 5 5 9 7 7 10 8 11 12 9 8 7 6 7 7 6
10 9 8 6 7 8 6 5 12 16 6 4 12 14 10 12 11 6 2 3 3 3 1 1 1 2 1 4 4 2 1 6 2 8 8 6 3 1 2 3 4 4 4 2 2 2 2 2 3 4 2 2 4 3 3 5 4 3 4 4 6 5 4 7 8 4 3 2 4 1 4 4 4 6 8 6 7 9 8 10 12 10 10 10 9 9 9 8
9 8 5 4 6 7 7 9 13 11 7 10 13 12 11 12 10 4 3 2 2 3 1 1 1 3 2 4 4 1 3 3 2 1 2 8 5 2 1 6 5 6 7 1 2 5 3 3 3 4 2 2 3 4 5 5 4 5 5 5 5 3 2 4 3 1 0 1 5 5 3 3 5 6 7 7 6 6 8 11 12 12 12 12 11 11 11 10
8 6 3 4 6 7 9 10 10 8 10 13 12 13 11 9 7 3 4 1 3 2 1 1 2 2 2 3 5 4 4 3 2 3 2 8 5 2 2 5 4 7 8 2 4 6 3 4 6 6 4 3 3 5 5 4 5 7 6 3 0 1 3 3 2 3 4 2 5 6 3 2 5 5 6 7 6 6 9 11 11 11 11 11 11 11 11 10
6 5 3 4 5 7 10 10 8 10 13 13 14 16 11 5 3 4 2 1 3 2 0 1 2 4 5 3 5 6 5 4 4 4 2 3 3 3 2 3 2 5 6 3 4 6 5 1 3 3 2 3 3 5 5 6 6 5 5 1 3 3 4 3 2 1 3 3 6 7 5 4 4 5 5 5 4 5 5 6 9 9 10 9 8 8 10 10
5 4 4 5 5 6 7 7 8 12 13 15 17 14 7 3 2 3 1 0 1 2 2 1 0 3 6 6 5 6 7 5 4 6 4 1 2 3 1 2 2 2 5 5 5 6 6 4 0 2 3 3 2 5 5 6 4 3 3 2 3 4 4 3 3 2 1 5 7 7 6 4 4 5 5 6 6 6 4 2 6 8 9 9 8 7 8 9
4 4 4 5 4 4 5 7 11 13 13 17 15 8 3 3 1 2 2 1 1 2 1 1 2 1 4 4 4 3 5 5 4 5 5 3 4 5 4 3 3 0 3 4 4 4 5 5 5 4 6 6 4 3 5 6 3 2 3 4 3 2 3 2 2 1 4 5 5 5 5 4 5 6 7 8 9 8 5 2 5 6 6 7 8 7 7 8
3 3 3 4 3 4 5 8 11 11 14 16 10 2 3 2 1 3 4 1 1 4 2 1 2 3 4 4 5 6 5 4 3 3 4 5 5 5 7 8 7 5 4 5 4 3 3 6 7 4 4 6 6 4 2 4 3 4 4 4 3 2 1 2 3 2 3 3 4 5 3 4 4 5 7 8 8 7 5 5 6 7 7 8 8 7 7 7
3 3 4 4 5 5 4 7 9 10 13 13 5 1 3 1 3 4 4 3 2 3 4 6 7 4 4 4 4 6 5 3 5 4 4 3 2 2 4 6 7 5 3 2 2 2 1 4 4 2 1 5 6 6 6 5 4 4 5 5 5 4 3 4 3 2 3 2 3 4 3 3 3 5 8 6 8 7 4 3 4 4 6 8 7 7 7 7
4 6 8 8 9 6 4 7 9 9 9 7 3 2 1 2 4 3 2 3 5 7 9 9 10 6 5 5 7 7 4 3 2 1 1 2 2 2 3 4 7 6 2 1 2 1 1 4 4 4 4 8 8 7 7 4 3 3 3 4 5 5 5 4 3 4 2 1 3 1 2 4 4 7 10 7 8 9 8 4 2 4 2 7 6 6 7 6
7 9 11 13 10 4 4 6 8 7 6 5 4 1 2 4 4 2 2 3 5 7 8 8 6 4 4 4 6 6 3 1 1 3 2 3 2 4 5 4 7 9 5 3 1 1 1 5 5 5 4 4 6 7 8 5 2 3 3 3 5 6 6 3 2 1 2 1 3 2 3 6 4 6 8 6 7 9 9 7 2 3 3 6 7 6 7 5
10 9 11 13 6 2 5 6 6 7 5 2 1 2 3 3 4 3 3 4 5 6 6 5 3 3 3 3 5 5 4 3 2 3 1 2 2 4 4 3 3 3 5 5 1 0 2 4 6 7 8 10 8 4 4 6 5 3 4 4 4 2 2 3 1 1 1 2 4 2 3 6 3 4 6 6 8 10 8 7 6 4 1 1 2 4 6 7
11 8 10 10 3 4 5 6 7 5 2 1 2 4 4 3 4 2 5 5 5 5 5 3 2 3 3 3 6 7 6 4 3 3 2 2 2 5 3 3 5 4 7 8 2 0 3 1 5 5 7 10 8 5 2 3 3 5 7 5 1 1 1 1 1 2 2 2 4 3 5 4 3 4 5 6 6 7 8 8 7 8 8 6 6 4 3 3
6 4 4 2 2 5 6 6 6 3 1 2 3 3 4 4 2 5 6 4 4 4 3 4 3 3 4 5 5 7 7 5 4 4 2 1 3 4 3 1 3 4 6 8 3 1 2 0 3 4 6 8 7 4 3 5 5 4 5 4 1 3 3 2 2 2 3 2 3 3 3 3 4 5 2 4 5 6 7 7 7 9 10 8 7 7 7 7
2 2 1 2 2 6 5 3 3 1 0 3 4 4 4 3 5 7 4 3 3 1 1 4 4 2 4 6 6 6 6 6 6 3 2 2 2 3 3 3 3 5 5 6 4 1 2 1 3 3 7 6 4 3 3 4 5 5 4 4 3 1 0 0 1 1 3 2 1 1 3 5 5 2 3 4 5 5 6 5 5 6 7 7 7 7 6 6
3 2 2 3 2 4 3 2 1 1 2 4 4 3 3 2 4 8 6 3 3 3 3 3 4 2 2 4 4 4 4 4 5 3 3 4 3 2 4 5 4 6 6 4 4 3 2 1 2 3 4 3 5 7 8 8 7 5 4 4 3 2 1 1 4 1 4 2 3 2 4 6 6 3 3 4 4 5 6 5 5 6 7 6 6 7 6 5
2 2 2 1 3 4 3 2 2 2 2 3 4 4 2 1 3 5 4 2 2 2 2 2 3 3 2 3 3 4 4 3 4 4 3 5 4 1 2 6 5 4 5 4 3 2 0 2 1 3 3 5 8 9 11 13 13 9 5 4 3 1 3 3 3 2 1 2 3 3 2 6 5 2 2 4 5 6 7 7 6 6 7 7 7 7 7 6
1 5 6 2 6 8 4 2 4 3 2 4 6 6 5 5 5 5 4 4 4 3 2 2 4 4 3 4 3 5 5 2 3 4 4 6 5 1 3 5 4 3 4 3 2 2 2 1 0 3 3 4 6 8 9 9 8 6 5 3 2 1 1 4 5 3 2 2 2 3 2 7 4 2 4 4 5 6 7 8 8 7 7 7 7 7 7 7
3 5 5 2 12 13 4 1 4 4 4 5 6 7 8 6 6 7 6 3 2 4 3 3 3 2 3 4 4 4 4 2 2 3 4 5 2 1 2 2 4 3 2 2 1 1 1 0 1 2 4 5 5 4 5 4 4 2 4 5 3 3 3 2 1 2 1 4 5 4 3 7 4 3 5 5 6 6 6 8 8 8 8 8 8 7 7 7
4 3 2 6 14 12 2 2 4 2 4 6 6 7 7 5 6 8 8 3 1 3 2 3 4 3 3 5 5 5 4 3 3 2 3 5 3 4 7 2 6 5 4 7 6 3 1 1 2 1 3 3 2 1 1 4 4 3 4 6 7 7 6 3 1 1 1 3 3 4 5 7 6 4 4 5 7 7 7 9 9 8 8 8 8 8 7 7
3 2 3 6 8 6 1 4 5 2 3 6 4 5 6 5 6 7 5 2 2 2 1 2 4 5 4 5 5 5 5 5 5 4 4 5 4 4 8 5 4 8 9 11 8 5 2 1 2 4 6 5 5 5 4 5 6 7 8 9 8 7 4 3 2 1 3 2 4 4 4 6 10 8 2 3 6 7 8 9 9 8 9 10 10 11 11 10
2 1 3 4 4 4 4 5 6 4 5 5 3 4 5 6 6 4 1 1 3 3 1 1 3 3 4 5 4 3 4 5 6 6 6 6 4 6 11 11 4 6 9 7 6 5 3 2 4 6 8 7 7 8 8 7 9 10 11 13 11 6 4 3 3 5 4 2 5 6 3 4 10 13 7 2 4 4 5 5 5 6 7 8 10 12 13 12
3 1 2 4 3 3 5 6 7 7 8 6 3 4 6 7 6 4 2 2 4 4 1 0 1 2 5 6 6 3 3 4 5 4 4 4 5 7 10 10 6 2 1 0 2 4 3 3 5 7 9 9 8 8 8 8 10 10 11 13 11 6 5 3 6 7 3 3 7 8 5 5 10 14 11 3 2 2 4 4 5 6 7 8 9 10 11 10
4 2 3 5 2 4 5 7 10 9 7 6 4 4 5 6 5 6 6 3 3 4 5 3 2 3 5 6 4 3 4 3 3 3 4 4 5 5 5 7 7 7 6 4 2 2 3 3 6 7 8 8 7 7 8 8 9 11 13 13 8 5 4 6 7 7 5 6 8 9 8 9 10 9 9 4 0 1 3 4 6 6 6 6 6 7 7 7
4 3 3 4 3 5 6 6 7 7 5 5 4 4 5 6 5 5 5 4 3 4 7 7 6 6 7 7 5 4 5 1 3 1 3 4 5 4 2 4 6 7 8 6 3 1 2 2 4 4 5 6 5 5 8 8 8 13 14 10 6 6 8 9 8 7 6 7 8 7 9 11 7 3 5 6 3 2 4 5 5 4 4 6 7 8 8 8
8 7 7 4 3 4 5 5 5 5 5 4 4 4 4 3 5 6 5 6 5 4 5 7 7 6 7 8 7 6 7 1 3 2 2 2 1 1 2 4 6 8 7 5 4 3 2 3 4 2 4 3 3 4 7 6 8 13 12 6 4 6 7 7 7 7 6 7 8 7 7 9 9 4 5 7 5 4 4 4 5 4 5 6 7 7 8 9
13 11 10 5 3 4 4 5 5 4 4 4 5 6 5 4 7 8 5 4 6 7 8 8 7 6 5 6 6 6 8 7 4 3 2 3 3 3 3 6 9 8 6 4 4 3 1 2 3 3 5 2 3 0 4 5 7 10 7 4 6 7 7 7 7 7 8 7 6 6 7 8 9 7 4 5 5 5 4 3 4 4 5 5 6 7 8 9
Wind_Direction
326 325 324 324 322 321 319 318 319 318 319 315 313 313 311 311 308 308 309 305 299 295 295 296 299 306 310 313 323 331 330 321 312 301 262 241 245 258 269 250 234 222 228 262 278 246 261 266 244 240 250 259 236 229 262 265 253 237 190 214 247 253 259 252 265 284 336 322 123 138 119 106 111 93 83 84 87 93 88 80 72 68 84 102 112 121 124 129
328 328 325 325 324 323 321 317 317 317 316 314 312 310 311 311 307 305 305 303 300 302 302 300 304 309 311 319 331 335 334 323 311 288 254 236 247 256 242 219 215 217 224 245 249 232 240 252 234 224 226 240 224 211 224 236 233 228 197 201 226 239 253 260 286 293 12 4 283 168 118 96 119 117 82 97 101 100 97 96 93 89 89 98 111 121 128 135
329 327 325 324 322 320 319 315 314 314 314 315 311 307 308 307 307 305 304 304 300 303 302 302 307 309 315 325 334 340 336 323 307 273 251 232 237 246 233 220 215 218 229 237 240 238 241 254 249 220 200 231 234 223 214 210 224 225 215 220 237 238 255 274 290 286 336 52 323 0 82 76 109 115 81 112 122 122 120 126 118 118 121 118 121 126 134 144
329 326 325 323 321 319 319 317 315 315 314 312 310 307 304 302 305 306 305 304 302 303 301 303 309 308 320 329 335 344 337 317 284 262 252 223 221 228 224 224 223 220 225 230 237 247 260 274 274 239 203 222 229 236 228 203 209 212 195 227 250 252 268 285 322 324 350 42 9 12 44 88 115 110 126 122 121 142 148 149 145 145 141 134 135 136 143 150
331 328 328 325 322 320 319 318 314 312 310 306 306 305 302 301 300 300 298 297 298 300 302 304 307 311 325 331 334 343 345 335 263 212 197 196 201 204 208 211 207 203 202 213 234 253 266 271 274 258 217 224 233 235 234 209 204 224 208 224 246 263 278 286 5 6 359 9 25 23 19 101 133 110 125 123 124 220 199 161 147 142 138 134 139 141 145 147
334 331 329 325 322 319 315 314 312 310 308 306 305 303 301 298 295 296 292 292 296 298 302 302 308 320 329 330 328 329 356 305 273 174 165 179 184 183 187 186 183 187 185 206 241 254 262 257 254 256 218 221 241 239 243 216 193 220 235 225 235 240 251 268 35 11 358 354 1 358 331 71 105 79 75 92 107 59 84 135 128 122 126 130 136 139 143 142
334 332 329 327 323 319 316 313 312 310 306 302 300 298 298 297 294 295 293 295 298 297 302 304 315 330 331 332 325 293 197 268 275 206 172 175 172 172 182 191 193 192 192 214 244 245 250 251 237 238 225 216 237 243 249 230 187 198 240 233 235 240 236 159 85 46 14 337 339 360 316 272 127 148 79 85 98 81 84 103 111 117 125 127 132 136 144 140
334 333 331 329 324 319 317 312 310 308 304 299 299 299 299 301 296 294 296 296 296 298 301 308 327 335 336 343 335 243 228 257 257 204 174 174 172 181 195 200 202 198 204 219 233 236 245 248 231 227 232 224 239 244 244 241 203 205 239 238 244 260 224 112 90 62 27 314 342 26 347 308 134 144 110 107 110 100 101 107 113 120 125 127 134 139 143 138
337 335 332 329 324 320 317 312 311 308 306 304 303 301 298 299 297 294 294 295 296 294 296 310 329 332 337 339 302 293 267 237 216 183 171 178 180 190 202 200 202 198 208 225 230 238 246 238 227 225 227 233 250 257 256 253 221 213 230 242 254 275 185 116 114 122 110 307 4 34 334 315 348 54 87 116 119 116 118 122 127 130 132 134 140 147 147 139
339 336 333 330 327 324 320 318 315 312 310 309 306 302 297 296 294 293 291 293 294 290 299 315 324 334 336 307 263 292 244 173 166 170 169 176 179 191 204 199 205 203 211 231 233 236 242 240 244 238 231 250 263 261 266 252 214 213 225 247 263 263 86 113 110 119 130 214 277 146 254 288 319 57 108 139 129 132 126 129 136 134 137 143 144 151 146 137
341 338 336 332 331 328 326 325 322 320 317 314 311 307 302 299 294 292 289 292 294 294 304 310 322 344 334 298 271 270 200 155 144 158 163 173 186 202 214 208 208 209 214 231 236 237 243 254 273 301 252 302 313 284 284 268 212 209 269 279 285 255 173 107 93 100 153 212 234 178 230 289 306 146 209 219 150 152 135 132 139 138 141 146 147 148 136 133
342 341 338 336 336 334 332 329 325 323 318 314 312 308 304 301 297 290 283 285 292 297 303 311 337 358 338 301 244 245 214 176 160 160 168 187 200 213 230 230 219 216 224 250 266 270 282 282 288 331 291 313 320 293 303 304 277 83 22 324 309 317 252 149 136 203 194 203 196 142 348 293 283 250 217 200 159 162 145 136 144 144 144 145 146 143 133 137
344 343 342 341 339 335 332 328 325 320 315 309 304 302 298 295 293 284 280 279 280 293 298 310 334 352 348 287 242 244 237 230 196 171 177 197 212 225 238 244 237 234 250 275 290 301 311 312 321 329 294 305 301 268 283 305 333 80 25 287 297 322 288 200 174 187 187 196 167 131 198 262 265 258 238 203 161 153 145 144 148 145 145 148 147 145 142 142
346 345 345 342 337 334 333 331 329 325 320 313 305 301 296 291 287 278 280 278 277 288 290 305 329 21 55 258 273 266 235 239 212 186 190 199 214 230 235 235 245 252 262 267 277 295 304 314 325 313 287 276 264 278 295 302 346 85 315 286 243 275 275 234 192 179 192 197 144 122 169 247 258 254 253 216 154 146 157 164 153 147 150 151 151 150 151 150
347 345 342 339 337 336 336 336 337 336 334 329 323 318 305 292 280 272 275 273 285 290 293 304 269 204 341 278 289 269 219 232 220 203 210 213 214 230 233 222 227 241 253 263 272 290 291 294 303 279 269 273 261 277 306 310 300 144 213 291 251 205 253 254 199 176 191 190 138 125 182 249 259 264 268 214 159 147 163 183 160 148 151 155 158 154 152 157
345 340 336 336 335 335 337 340 344 345 347 348 347 341 324 299 278 266 270 264 282 278 285 305 226 199 322 286 292 262 204 230 229 213 215 220 220 229 232 219 222 230 235 254 257 267 275 266 259 251 262 297 303 271 302 332 313 226 170 237 249 205 242 263 207 182 183 170 144 142 175 236 248 283 311 172 159 145 153 184 166 147 154 159 158 156 154 159
341 336 332 332 331 334 337 337 344 352 354 353 354 355 344 316 287 265 273 266 281 263 250 278 232 185 249 276 303 297 205 220 224 214 208 216 230 239 241 220 215 224 223 243 241 238 258 236 191 259 264 281 300 296 306 296 289 298 211 227 251 234 241 266 217 186 168 149 168 174 183 229 242 281 12 96 131 130 147 185 175 149 156 164 158 157 160 162
338 333 327 327 328 331 333 332 336 346 354 351 346 351 346 327 297 274 281 266 296 283 267 280 275 182 259 261 261 234 201 195 201 208 200 209 240 257 272 258 212 220 220 243 241 214 226 230 164 261 316 275 260 251 204 232 237 305 320 264 276 266 254 257 223 185 166 159 177 182 200 239 251 243 181 143 133 140 174 191 179 160 156 165 165 158 161 169
336 330 320 320 322 326 330 328 327 330 340 342 334 330 324 309 293 277 252 219 151 231 266 239 198 186 306 235 226 216 148 151 166 196 205 210 228 252 282 282 255 224 208 205 237 211 181 320 357 289 300 260 243 222 215 237 194 16 332 346 296 302 294 290 262 176 173 172 179 171 188 232 252 231 204 194 162 162 188 193 174 167 159 162 169 164 164 174
334 328 317 311 312 320 325 322 319 320 326 330 337 336 321 322 345 299 215 209 219 239 262 239 198 227 298 263 176 118 105 147 190 209 215 215 204 213 261 275 275 263 231 201 229 222 154 166 243 225 236 230 208 165 181 309 14 36 19 10 332 329 320 326 354 97 132 140 200 188 182 226 249 242 225 227 210 177 180 190 187 172 167 166 169 171 168 177
332 326 317 306 303 307 314 317 311 311 318 323 336 346 309 0 45 320 281 222 226 235 251 258 234 225 251 259 121 125 204 187 206 218 206 203 195 194 210 221 255 273 252 238 253 315 130 173 231 228 228 223 194 132 107 51 18 21 44 28 345 326 302 313 344 357 50 95 214 223 177 245 265 280 283 230 204 212 192 188 198 185 177 174 171 176 175 176
331 324 318 308 296 293 297 303 301 304 310 311 320 251 268 343 2 335 336 273 250 244 242 249 249 234 242 260 164 145 293 216 212 231 190 180 180 185 186 181 203 235 242 243 248 332 201 220 244 238 215 199 201 104 88 75 35 9 23 37 354 308 306 317 355 17 33 56 327 360 2 292 293 300 302 296 210 223 219 195 199 195 183 179 177 179 181 181
331 321 319 306 293 288 286 291 295 297 295 292 282 244 286 354 6 350 348 287 284 270 247 234 240 237 243 259 221 184 270 242 232 220 174 173 177 181 205 207 208 223 229 226 204 184 211 236 238 225 167 123 275 48 69 58 28 346 10 32 287 281 307 315 338 26 57 107 267 353 344 300 305 313 300 282 249 228 222 211 209 200 184 181 181 176 180 183
330 322 317 304 297 288 287 294 291 289 287 283 277 274 304 7 18 7 6 257 279 273 259 222 216 231 227 224 189 193 233 240 256 198 165 175 186 175 209 241 232 235 226 217 210 201 221 222 188 160 131 112 307 338 49 55 359 321 314 265 259 276 286 276 277 18 44 27 267 335 345 316 284 278 275 267 258 247 218 210 216 214 195 180 171 168 176 182
332 325 314 306 302 295 300 300 290 297 293 277 282 294 332 12 4 7 18 279 279 270 279 236 199 215 114 116 137 203 245 236 243 144 154 183 216 192 211 238 228 235 250 246 225 214 231 217 148 134 139 143 196 303 1 115 29 317 290 248 241 257 279 280 275 38 29 347 291 191 333 301 269 249 257 261 260 258 216 195 205 216 207 187 174 177 175 184
333 327 319 308 302 306 312 303 307 318 298 263 328 2 15 356 351 5 39 25 317 268 315 243 155 122 228 141 158 257 308 268 186 143 159 195 232 235 140 274 269 234 254 271 265 232 224 189 138 136 142 158 173 223 233 147 129 289 260 245 244 245 269 278 274 267 89 273 265 171 182 270 295 270 257 253 248 246 214 187 197 206 206 199 198 200 188 186
334 332 325 307 304 312 309 302 325 330 327 13 8 10 6 346 345 358 47 49 332 275 204 64 131 166 203 176 180 118 274 274 133 145 168 167 201 25 84 275 297 260 263 18 353 295 175 132 93 110 120 175 175 201 229 172 165 244 246 254 266 256 261 278 268 229 175 243 304 297 186 233 287 276 264 252 250 250 223 198 197 196 201 205 204 205 203 195
337 338 328 307 305 305 295 301 319 332 2 13 2 353 350 339 334 358 66 62 285 271 226 262 138 169 181 177 201 228 231 240 60 266 169 136 161 63 116 259 285 288 290 5 259 262 177 145 161 162 177 205 183 217 224 181 191 227 213 225 250 259 310 326 309 264 187 340 319 295 218 227 269 273 285 280 264 254 231 218 207 195 194 200 204 208 208 199
342 343 331 309 305 315 321 309 305 322 345 355 349 336 331 320 323 36 76 62 254 263 189 179 93 174 217 189 203 234 247 219 165 239 137 130 176 148 168 249 282 297 293 266 244 255 207 168 172 170 172 195 219 248 234 202 221 220 196 206 274 7 331 345 356 351 10 2 273 265 217 217 274 275 287 287 275 258 238 221 207 198 195 192 194 201 202 198
343 343 327 311 313 337 334 308 311 337 340 343 336 332 333 327 8 66 50 291 232 266 247 143 104 166 197 209 214 207 217 225 180 184 160 132 179 164 179 247 269 307 315 327 291 268 263 243 148 151 155 177 227 262 252 231 221 187 164 114 28 355 324 327 328 29 9 304 259 252 229 214 266 277 258 252 258 278 259 200 185 191 194 190 186 187 186 187
346 336 318 313 312 329 320 299 333 346 338 339 335 335 347 352 70 102 287 207 182 286 316 297 3 162 190 212 218 192 193 225 197 172 181 127 151 173 197 287 271 319 335 333 311 286 287 306 355 160 157 160 243 276 287 268 238 137 116 70 37 347 339 337 331 67 189 262 251 246 253 243 252 263 259 262 268 291 323 144 176 191 192 190 188 185 177 171
352 331 319 320 309 304 298 304 327 335 335 341 339 338 19 19 36 181 231 65 74 269 266 272 286 279 273 280 280 240 202 214 209 181 184 172 180 190 183 191 182 94 312 289 281 289 285 259 243 205 174 177 206 260 305 297 272 123 96 73 62 334 337 323 284 205 207 249 259 252 260 260 251 249 262 279 274 274 293 227 171 166 186 198 193 188 179 164
352 330 321 315 293 280 288 306 317 326 335 343 342 342 64 47 308 250 260 315 241 238 238 297 265 245 276 310 313 291 260 207 185 182 194 186 184 193 196 196 177 162 219 236 234 265 301 270 249 225 181 177 175 184 240 275 241 164 140 123 140 169 273 269 252 235 229 259 295 304 292 263 266 266 262 270 272 263 256 233 191 161 172 197 200 181 168 160
340 320 312 287 265 270 297 316 313 311 325 338 348 18 44 29 260 271 296 338 349 322 355 352 336 320 290 285 258 260 268 232 196 183 204 204 173 221 227 218 207 194 190 212 219 205 310 299 262 259 214 174 186 187 183 210 229 202 178 158 159 163 189 229 222 222 249 269 290 312 311 232 217 261 271 285 298 294 286 250 222 209 178 172 180 160 152 164
336 326 317 294 268 266 318 324 315 312 319 340 15 32 46 236 259 294 330 344 1 355 352 343 332 321 303 291 263 255 256 231 212 137 239 235 192 219 226 225 234 230 141 99 241 190 299 277 248 243 207 178 197 204 185 211 274 259 212 164 177 188 193 214 201 183 183 324 302 264 251 244 225 268 286 301 305 304 313 316 196 225 188 132 144 149 144 158
321 328 318 300 276 269 334 316 312 327 332 358 32 12 227 240 289 4 29 343 359 355 339 329 320 298 291 299 284 293 337 317 1 53 345 293 277 246 235 228 227 214 170 136 232 55 15 274 296 314 285 228 229 214 178 173 210 268 259 213 214 202 176 188 267 214 104 319 282 204 254 295 312 294 292 300 293 287 294 304 286 233 204 143 147 155 141 135
323 324 304 294 287 1 349 308 304 330 341 19 53 258 249 263 303 340 56 23 5 354 338 333 331 310 316 329 315 336 6 333 1 73 297 289 305 285 268 296 301 198 137 103 148 178 132 261 304 335 318 305 298 270 180 167 172 209 243 247 274 285 120 116 212 329 58 251 261 191 232 280 304 292 302 320 307 296 295 306 320 329 325 156 171 175 157 146
332 324 296 291 334 16 330 299 304 328 6 9 249 251 259 262 287 357 59 42 12 0 344 313 296 310 332 338 322 338 352 338 1 18 300 261 302 328 338 348 8 51 89 87 89 283 76 307 304 337 315 309 327 344 318 252 224 220 234 248 311 31 348 6 202 200 167 225 271 253 231 244 229 245 294 321 327 336 346 350 358 21 34 20 360 352 14 65
329 317 296 283 353 329 302 292 310 341 47 297 260 246 266 272 333 48 71 63 23 11 329 298 316 338 340 341 328 333 342 336 341 344 328 315 282 306 353 7 352 32 82 92 102 249 64 345 282 331 328 321 342 357 319 306 302 276 260 271 246 156 177 179 203 199 170 206 272 287 268 254 229 216 277 336 355 16 19 21 29 45 55 44 26 14 10 16
316 305 244 191 293 311 304 296 315 20 203 250 237 257 300 325 2 14 36 88 85 79 259 297 320 327 329 340 335 325 330 328 328 325 295 310 291 291 357 21 344 355 46 87 91 31 30 338 257 314 341 335 326 298 280 305 325 340 340 320 314 309 143 36 275 165 123 155 208 300 286 264 254 241 72 34 357 15 38 45 41 56 72 64 45 32 22 22
308 325 222 208 324 341 357 350 281 198 228 242 244 281 340 6 342 343 354 88 142 199 210 253 297 311 316 324 317 306 314 320 320 312 285 320 3 5 2 24 15 358 17 51 51 23 20 64 241 291 333 309 278 292 309 317 321 327 318 285 267 249 198 303 291 226 110 149 172 162 263 263 261 286 24 16 349 8 30 41 41 47 63 71 59 43 33 22
275 340 267 265 7 353 4 348 271 230 227 278 302 311 347 332 313 337 346 323 276 269 230 244 314 343 312 297 310 313 318 315 313 319 314 331 357 76 60 44 31 16 32 51 52 20 355 105 209 264 247 243 268 287 297 302 301 296 286 279 281 261 130 140 235 243 116 186 176 134 237 268 255 192 83 23 360 0 8 25 39 34 37 49 46 36 30 14
311 318 283 289 11 5 7 322 317 327 313 332 339 335 344 347 333 333 318 295 306 354 15 355 0 2 326 324 332 317 318 314 301 314 316 325 341 30 102 76 54 37 54 58 32 339 340 70 298 283 275 270 280 280 275 286 301 302 300 318 343 304 146 160 191 189 138 200 180 123 229 271 279 112 89 43 20 8 2 18 30 22 14 19 22 18 14 9
312 291 259 321 6 12 32 263 327 332 314 338 359 348 346 346 327 313 304 295 348 16 3 328 326 319 301 315 310 301 316 317 287 305 309 307 314 290 302 76 96 76 80 146 194 299 297 351 24 343 324 323 327 311 296 322 6 354 304 317 336 343 354 7 153 110 129 216 187 152 224 257 272 9 8 356 10 15 7 15 21 14 1 355 359 5 0 2
309 280 267 343 357 10 56 253 317 294 313 356 5 342 335 326 315 316 314 313 358 3 345 305 317 324 319 324 317 306 313 308 287 293 298 292 279 290 304 297 125 112 134 159 151 122 146 191 93 125 255 275 261 227 306 341 337 313 297 305 313 321 333 353 11 20 269 250 210 180 231 265 282 326 356 356 5 9 3 5 7 2 356 346 342 343 340 342
328 316 322 333 347 8 350 316 350 11 358 9 355 320 317 299 305 324 334 354 5 350 349 322 332 341 331 322 318 311 314 314 308 307 299 293 290 309 316 326 110 134 154 156 140 106 111 191 168 185 218 228 227 249 304 326 308 298 301 299 293 298 323 20 25 246 217 287 304 235 231 288 296 293 307 27 21 8 354 354 353 345 345 343 334 327 320 316
346 329 355 339 317 348 350 340 9 16 343 348 334 301 304 298 302 322 29 21 309 289 262 335 334 334 322 318 313 298 295 295 292 293 294 295 313 330 325 333 27 139 161 154 122 101 115 213 213 216 238 248 252 273 295 301 289 285 291 289 282 294 338 356 297 253 229 298 295 260 249 301 290 285 289 359 41 1 325 324 327 325 326 321 309 301 298 297
10 309 14 18 309 321 347 331 329 328 319 320 313 294 298 303 306 299 288 307 303 297 315 32 294 295 296 297 292 279 281 285 284 295 313 322 345 350 335 333 351 23 2 17 111 121 136 213 215 216 241 249 249 265 269 263 266 271 272 274 282 320 352 301 261 258 250 241 254 259 260 254 266 282 296 334 59 261 261 265 279 286 285 286 286 285 287 291
15 324 352 29 355 299 308 307 302 298 290 288 283 275 281 288 294 290 289 293 314 351 14 10 320 313 305 305 322 346 337 313 288 318 359 359 349 352 333 320 330 346 346 325 255 144 125 211 218 216 239 246 236 253 267 268 274 275 269 270 284 317 308 279 272 273 264 246 253 273 283 266 260 281 301 312 113 216 267 282 285 290 296 305 313 312 309 310
7 327 333 358 329 299 293 299 304 295 282 274 266 266 269 269 280 299 319 338 349 5 7 344 336 355 344 339 4 356 323 245 172 273 4 9 350 351 336 312 320 331 333 322 305 21 79 255 242 225 257 260 224 238 269 277 278 275 276 287 310 300 282 279 278 277 277 274 274 292 300 284 273 302 311 301 312 350 317 301 300 314 339 352 346 331 326 326
352 333 342 329 295 313 306 299 312 304 295 287 268 278 290 307 339 352 355 354 349 352 341 325 339 12 354 332 334 323 316 324 155 199 207 188 257 265 262 301 317 318 315 308 314 353 32 302 304 317 290 269 176 228 270 288 289 284 287 298 290 269 264 258 252 248 244 255 273 290 290 278 277 289 290 288 311 348 341 330 343 354 357 355 340 324 321 318
358 341 352 350 277 305 313 298 300 291 294 329 330 322 325 351 5 8 3 342 348 355 352 352 2 12 353 324 318 323 331 332 307 271 230 223 251 249 258 283 291 292 288 288 301 328 8 308 326 328 293 283 112 265 321 354 324 291 273 221 212 230 244 249 251 247 231 222 239 256 249 255 277 300 313 314 337 3 15 3 344 335 339 332 306 298 303 303
Height
797 796 795 794 793 792 791 791 790 789 789 788 787 787 787 787 786 786 786 786 786 785 786 786 785 785 784 784 783 782 781 779 777 777 775 769 769 770 770 770 771 771 773 773 773 774 774 774 773 773 774 774 774 773 771 768 766 770 778 787 792 789 782 770 765 762 758 755 748 741 739 745 752 748 744 744 748 755 761 764 764 765 767 771 775 778 780 784
796 795 794 793 792 792 791 790 790 789 788 788 787 787 786 786 786 786 786 785 785 785 785 785 785 785 784 784 783 782 780 778 777 775 769 766 768 770 769 769 770 771 772 773 773 773 774 773 771 772 774 775 774 771 772 768 766 773 778 784 787 780 770 760 760 757 752 754 750 743 740 743 748 748 746 752 760 760 767 773 770 774 777 777 778 780 782 784
795 794 793 793 792 791 790 789 789 788 787 787 787 786 786 786 786 785 785 785 785 785 785 785 784 784 784 784 783 782 780 778 777 770 763 764 767 768 769 770 769 770 771 772 772 773 773 772 770 771 774 776 774 771 773 769 768 771 775 784 780 768 762 757 757 754 748 748 749 747 742 744 746 745 747 755 761 762 769 774 774 780 781 781 782 782 784 785
795 794 793 792 791 790 789 789 788 788 787 787 786 786 786 785 785 785 785 785 785 785 785 784 784 784 784 783 783 782 780 779 774 764 760 763 765 766 768 768 769 770 770 771 772 772 772 770 769 770 773 776 773 771 773 770 769 768 772 780 771 763 764 759 756 752 747 744 748 749 746 748 747 745 749 754 763 767 767 766 767 773 776 779 782 783 785 786
794 793 792 791 790 789 789 788 788 787 787 786 785 785 785 785 785 784 785 785 784 784 784 784 784 784 784 783 783 782 782 781 770 760 760 762 763 765 766 767 768 769 769 771 771 771 771 770 769 770 772 775 774 772 772 765 764 768 769 768 763 762 766 759 752 751 749 746 748 750 751 752 747 748 750 753 766 769 761 758 759 765 770 775 779 782 785 787
793 792 791 790 789 789 788 787 787 786 786 785 785 785 784 784 784 784 784 784 784 784 784 784 784 784 784 783 783 782 784 779 765 760 762 761 763 764 765 767 767 768 769 770 770 771 771 769 770 772 772 773 774 772 769 760 760 769 768 761 759 759 761 757 750 750 750 750 753 753 751 749 751 754 752 754 764 761 752 754 759 765 770 773 777 781 784 787
793 792 791 790 789 788 787 787 786 785 785 784 784 784 784 783 783 784 783 784 784 784 784 784 784 784 783 783 782 782 784 775 762 762 763 761 764 763 765 766 766 768 768 769 770 770 770 769 770 770 771 772 771 768 764 758 757 766 767 759 757 755 755 754 750 749 751 753 754 753 751 751 756 757 754 758 761 756 753 756 762 767 771 774 778 781 784 786
792 791 790 789 788 787 787 786 785 784 784 783 783 783 783 783 783 783 783 784 783 783 784 784 784 784 783 782 781 783 782 770 760 762 762 762 764 763 765 765 766 767 767 768 768 768 769 769 768 767 771 771 766 764 760 759 759 762 762 757 754 753 752 751 749 751 752 753 752 753 756 756 755 755 757 761 760 757 758 761 766 770 773 777 779 782 784 786
792 791 789 789 787 786 786 785 784 784 783 783 782 782 782 782 782 782 783 783 783 783 783 783 784 783 784 782 782 784 774 760 758 761 761 762 763 764 765 764 765 766 766 767 765 766 768 767 764 762 767 766 762 761 758 763 764 757 755 754 752 752 751 750 751 752 753 753 753 757 761 758 753 754 760 761 759 758 759 762 767 770 775 778 780 782 784 786
791 790 789 788 787 786 785 784 784 783 782 782 781 781 781 781 782 782 782 782 783 783 783 784 784 783 784 782 784 785 767 755 760 760 760 762 763 763 763 763 764 764 765 764 763 764 763 762 758 756 760 761 760 758 756 760 758 750 751 751 751 753 750 750 752 753 754 754 755 761 764 759 754 758 765 761 757 758 760 764 766 769 775 777 780 782 783 786
791 789 789 787 787 786 785 784 783 782 782 781 781 781 781 781 781 781 782 782 782 782 783 783 783 783 783 782 786 781 762 757 760 759 761 762 762 763 762 762 763 763 763 761 760 759 758 756 753 755 760 761 759 756 753 751 748 746 750 752 752 752 751 751 754 754 756 758 756 759 763 761 758 763 765 758 755 758 760 766 767 769 774 776 779 781 783 785
791 789 788 787 786 785 784 784 783 782 781 781 781 780 780 780 780 781 781 782 782 782 783 783 783 783 782 783 782 771 759 759 759 759 762 761 762 762 760 762 761 761 761 759 758 756 756 753 752 758 761 760 761 760 754 746 745 747 750 758 758 754 755 753 754 755 757 760 754 757 769 770 765 765 761 754 755 757 760 765 768 769 772 775 778 781 783 785
790 789 788 787 786 785 784 783 782 782 781 780 780 779 780 779 780 780 780 781 782 782 782 783 783 782 784 781 770 760 758 759 759 759 760 761 762 761 760 761 760 760 760 758 757 755 756 753 753 757 757 760 764 760 753 747 747 750 752 760 764 764 764 755 752 755 757 758 752 760 782 782 769 763 757 752 754 758 761 764 767 770 772 774 777 780 783 784
790 789 788 787 786 785 784 783 782 781 780 779 779 779 779 778 779 780 780 781 781 782 782 783 783 783 785 776 761 757 758 758 759 759 759 760 760 760 760 760 760 760 759 758 757 755 755 753 753 756 756 758 759 755 754 753 752 755 759 763 767 775 772 755 751 756 759 758 749 761 785 782 767 761 755 752 753 757 762 763 765 770 771 773 775 778 782 783
790 789 788 788 786 785 784 783 782 781 780 779 778 778 778 778 779 779 780 781 781 782 782 782 783 783 784 774 759 757 757 757 758 757 758 759 758 759 758 758 759 758 758 757 756 755 755 754 756 760 759 755 756 760 763 762 757 758 770 775 772 776 771 756 750 753 758 757 750 762 782 778 767 761 754 751 752 755 760 762 764 769 770 772 774 776 780 782
790 789 788 788 786 785 784 783 782 781 780 779 779 778 778 778 778 779 779 779 781 782 782 783 781 783 785 773 759 756 757 756 756 756 757 757 757 757 756 756 756 756 757 756 755 755 754 755 757 760 760 758 762 766 768 772 770 763 771 780 775 775 773 762 752 747 751 756 754 762 776 775 767 760 752 749 750 753 759 761 763 768 770 771 773 775 778 781
790 789 788 787 786 785 784 783 782 781 780 780 779 778 778 778 778 779 779 780 781 780 781 781 780 784 779 765 760 758 755 754 754 755 755 755 756 755 755 755 755 755 755 754 755 754 754 756 759 760 761 763 765 768 777 787 785 774 772 776 773 771 772 767 757 747 747 757 760 762 768 769 763 758 753 750 752 754 759 762 762 766 769 770 771 774 776 779
790 789 788 787 786 785 784 783 782 782 781 780 779 779 778 778 778 778 779 780 780 781 782 780 782 788 777 762 760 756 751 752 753 753 754 754 755 754 754 754 753 754 756 757 756 756 758 758 760 765 767 767 767 772 785 789 784 781 779 779 776 770 767 766 759 750 749 756 761 764 768 765 760 758 756 753 753 756 759 761 761 763 768 769 769 772 775 776
789 788 788 787 786 785 784 783 782 781 781 780 780 779 777 777 777 778 779 780 781 781 781 777 777 779 769 757 753 750 749 751 752 753 753 753 754 754 754 753 753 755 761 764 762 758 761 763 766 774 775 773 769 771 778 778 774 777 776 777 779 774 768 761 754 748 748 756 761 764 769 765 762 761 758 754 753 756 757 758 760 762 765 767 768 770 772 774
789 788 787 786 786 785 784 783 781 780 780 780 779 778 778 777 778 780 778 778 777 773 769 767 767 765 759 753 750 750 750 751 752 753 753 753 754 755 755 755 755 758 763 766 766 759 760 771 776 776 775 771 768 766 768 769 768 771 773 773 775 775 772 761 753 748 746 758 763 761 764 763 760 760 759 757 756 757 758 758 760 761 763 765 766 767 769 771
788 788 786 786 786 785 784 783 781 780 779 779 779 780 778 776 780 781 776 774 769 765 763 761 760 760 755 751 748 748 750 752 752 751 752 751 752 757 758 757 762 766 764 763 764 759 761 775 777 769 767 765 765 763 763 766 768 771 774 775 775 776 773 762 757 753 749 758 765 761 763 763 759 759 758 757 759 760 758 758 759 760 761 762 762 763 765 767
788 787 786 786 785 784 783 782 781 780 779 778 778 779 777 774 776 775 773 773 766 760 760 757 756 756 750 748 747 747 751 756 756 752 750 750 752 759 760 759 766 768 763 762 767 768 771 775 769 762 761 761 762 761 762 766 769 773 774 777 780 775 770 764 760 759 756 762 770 767 769 769 762 758 757 756 759 760 757 755 756 756 758 759 759 760 762 763
787 786 785 785 783 783 782 782 781 779 778 778 778 777 775 772 772 771 772 776 769 758 755 754 754 753 750 748 746 747 753 756 757 753 748 750 754 757 760 762 765 765 764 765 770 777 779 772 761 758 759 760 762 762 763 767 769 773 774 778 782 776 775 776 768 763 761 764 770 771 773 772 765 761 758 756 755 756 755 754 752 752 755 756 756 757 759 761
786 785 785 784 783 783 781 781 780 779 778 778 777 775 773 772 771 771 772 775 772 758 749 748 747 748 749 747 744 748 754 753 753 751 746 750 754 754 758 761 763 765 764 762 765 772 773 762 753 755 758 760 765 765 765 770 774 773 772 777 779 774 775 777 771 765 765 766 766 770 780 779 769 767 763 756 754 753 753 753 753 752 752 753 754 756 758 759
785 785 784 783 783 782 781 780 778 778 778 778 777 773 773 772 770 771 773 777 777 761 748 745 745 747 745 744 746 747 750 750 748 747 745 747 751 754 756 755 759 766 763 758 762 767 764 754 750 756 758 759 765 768 766 771 777 777 772 770 772 771 770 771 770 770 777 781 769 771 792 790 770 768 766 758 755 754 752 753 754 753 751 752 753 754 756 757
784 784 783 783 782 781 781 779 777 778 776 776 776 773 773 771 770 770 774 786 787 765 754 752 749 749 747 747 746 745 756 754 742 742 744 745 746 749 757 756 755 760 758 755 759 761 758 752 750 755 759 761 765 768 765 766 779 784 773 763 765 767 769 770 771 775 786 788 771 770 793 795 777 768 763 757 756 754 751 752 752 751 751 751 752 752 753 755
784 783 783 783 781 781 781 778 778 776 775 776 774 773 773 770 771 770 776 797 793 765 757 757 751 750 748 746 744 751 767 758 742 743 742 745 745 746 758 762 759 758 752 756 767 762 756 756 756 756 760 764 768 769 763 762 777 782 767 760 764 766 770 772 772 777 779 778 773 770 780 793 787 770 758 755 757 754 752 752 750 749 750 750 750 750 750 752
783 782 782 782 781 782 780 779 779 776 776 776 773 774 773 770 771 770 785 807 789 758 755 754 748 746 745 745 744 751 759 751 752 753 740 743 747 748 760 761 760 761 752 761 776 764 754 759 760 759 763 767 766 764 759 760 772 772 760 760 763 763 768 770 773 777 774 778 788 779 774 791 791 770 756 755 757 757 753 749 747 746 747 748 748 749 748 749
783 782 782 782 781 781 780 780 779 777 777 775 774 775 771 771 772 775 796 805 777 755 753 751 749 748 745 747 748 750 750 748 755 753 741 745 747 748 759 758 757 761 755 759 769 761 752 753 754 755 762 765 760 757 755 760 766 762 757 760 761 762 765 768 773 777 777 787 797 785 777 792 792 772 762 761 759 757 750 744 743 742 743 745 745 747 747 748
783 782 782 782 782 781 781 780 778 778 777 774 775 773 770 773 776 791 810 797 770 758 751 749 752 750 749 754 754 751 750 750 749 747 746 748 747 748 752 751 753 760 759 757 761 757 749 745 747 751 756 756 754 754 754 756 758 757 758 762 765 766 766 770 772 774 788 799 795 784 776 786 793 777 763 760 754 748 744 741 741 740 740 741 740 742 744 746
783 782 782 782 782 781 781 780 778 778 776 775 774 771 773 777 782 803 808 777 763 763 752 752 752 746 750 756 756 752 750 749 745 747 752 750 752 754 754 757 760 764 768 764 761 756 750 750 749 747 747 749 753 756 754 751 752 756 761 767 775 779 776 780 781 783 802 806 789 777 771 780 795 780 758 751 744 740 740 739 740 740 739 738 737 738 740 743
783 782 782 781 781 781 780 779 778 777 776 775 774 772 779 789 793 801 788 762 767 770 756 756 753 747 750 751 752 750 748 749 745 746 752 754 758 758 759 765 766 773 780 774 767 762 757 755 750 746 744 745 755 762 760 756 754 758 764 772 787 797 797 800 799 797 804 800 782 773 772 780 786 772 755 749 742 737 737 735 736 738 738 738 737 737 737 740
783 782 782 781 781 780 779 779 778 778 776 774 775 775 784 801 801 789 774 765 771 765 753 755 751 747 751 753 754 750 746 748 745 745 749 750 757 758 756 757 757 768 776 772 772 771 766 758 749 750 749 745 752 764 770 766 761 763 767 776 791 803 811 813 806 799 799 793 779 770 775 782 778 762 750 746 740 736 734 732 731 732 735 736 735 736 737 737
782 781 782 780 780 779 778 778 778 777 776 774 777 781 791 804 795 776 772 768 761 755 752 755 753 751 753 755 754 748 749 750 743 745 749 749 757 760 757 754 751 757 764 768 772 772 777 775 758 753 754 749 750 756 761 761 761 762 760 767 782 790 800 807 801 798 798 792 782 775 780 785 778 761 747 740 737 733 732 731 729 729 730 732 733 734 736 737
782 782 781 779 779 779 777 778 777 776 777 776 780 789 797 800 785 773 775 769 760 760 758 756 757 760 760 755 749 743 748 751 743 746 752 753 758 759 756 754 749 750 759 770 771 765 775 776 755 746 747 747 750 747 746 754 763 762 754 763 777 774 777 787 787 787 791 794 790 783 781 775 765 754 741 738 737 733 733 732 730 732 730 730 734 734 736 737
783 781 781 779 778 778 777 778 777 776 777 779 788 795 793 787 775 769 771 767 765 767 766 765 763 767 768 760 753 746 745 748 747 751 755 754 755 753 751 749 744 744 752 763 768 767 775 773 753 747 747 742 745 743 740 751 763 764 763 767 764 755 761 779 786 780 785 798 793 782 781 772 764 757 744 740 742 737 736 735 733 735 733 732 734 733 735 736
783 782 781 778 777 778 777 777 777 777 777 782 795 795 783 774 766 763 764 764 766 766 771 778 772 768 773 769 763 756 751 751 750 754 759 757 755 751 748 746 740 739 744 753 762 764 772 776 759 752 755 745 738 740 739 740 750 762 769 762 751 751 758 773 788 789 794 805 794 781 783 780 777 771 752 745 749 745 742 740 736 736 736 736 736 735 733 733
782 782 781 778 777 777 777 777 776 776 778 785 794 789 777 770 762 758 761 763 766 768 775 783 774 767 773 775 770 760 757 761 759 759 762 759 757 753 750 749 744 740 742 749 759 760 766 779 769 754 758 751 738 744 750 743 741 751 757 751 754 770 774 773 784 792 799 805 795 783 783 780 779 773 758 754 758 754 751 748 745 745 746 745 743 741 737 735
782 783 782 777 777 776 776 776 775 776 782 790 793 784 771 764 759 758 761 763 767 772 777 779 773 770 773 774 773 766 762 766 765 765 766 762 760 756 751 752 749 745 743 746 758 760 762 779 779 761 756 757 751 756 764 760 748 746 748 748 753 765 773 775 778 782 791 800 797 792 787 779 769 761 758 761 760 757 757 754 752 754 754 751 748 746 744 743
782 785 783 776 776 776 774 775 775 780 787 788 786 777 767 763 761 758 760 762 766 772 776 775 773 775 775 772 773 771 766 767 765 766 767 761 759 759 754 752 752 751 747 746 755 761 762 775 784 772 763 767 768 763 763 764 761 759 761 762 760 760 765 771 774 776 786 798 803 804 799 784 763 754 758 762 758 755 756 756 755 754 753 753 750 749 749 748
784 786 782 775 775 775 773 777 779 781 784 781 776 771 767 766 764 761 759 761 764 766 767 770 771 773 775 774 774 772 769 769 767 767 767 760 760 765 759 753 755 756 754 755 763 771 772 776 784 782 778 778 775 762 756 759 763 766 769 767 765 765 768 778 785 781 782 792 796 800 802 785 762 754 758 758 756 753 753 754 755 752 752 754 753 751 751 750
787 788 781 774 775 774 774 780 780 777 779 777 772 768 765 765 765 764 763 762 763 762 761 765 769 771 773 773 773 771 771 773 771 769 769 764 763 765 760 754 755 757 759 767 773 775 775 778 783 784 781 777 770 759 756 757 755 759 764 763 763 765 769 784 792 785 783 788 787 793 798 779 755 753 756 755 754 753 752 753 754 754 753 754 754 754 753 752
789 788 779 775 776 773 777 784 781 778 778 775 770 767 765 766 767 766 765 765 765 765 766 768 770 772 773 772 772 773 773 774 773 770 770 767 763 761 757 755 756 758 763 772 775 773 774 779 784 785 780 772 765 759 756 756 757 762 764 763 764 767 768 775 780 779 784 787 786 796 800 777 754 752 754 754 753 753 753 754 756 757 756 755 755 755 754 753
791 786 779 777 776 775 781 787 785 783 780 775 775 775 771 769 770 769 767 767 767 769 773 774 772 772 772 771 772 773 774 777 776 770 770 770 765 759 756 755 757 761 767 772 774 775 778 781 786 792 792 786 779 772 767 766 768 772 771 767 766 767 768 771 772 776 784 783 780 792 796 776 757 753 752 753 754 754 756 757 758 759 758 756 756 755 756 755
792 787 780 777 776 776 782 784 782 784 783 781 783 782 778 775 771 769 768 766 766 769 774 775 771 771 771 771 774 773 772 777 778 772 770 770 765 758 755 755 757 762 766 767 767 772 780 784 787 795 801 801 796 788 782 781 779 776 774 770 769 768 770 774 776 782 787 783 779 785 785 771 760 757 757 755 755 757 758 758 758 759 759 758 757 756 756 755
793 793 790 784 779 779 783 781 781 785 786 788 790 785 783 782 774 768 768 768 768 768 772 774 772 773 775 776 779 780 775 775 777 776 775 774 768 762 758 756 758 761 763 762 762 769 780 785 785 791 795 797 795 788 781 782 783 780 777 773 771 770 770 775 782 786 786 785 785 782 777 771 765 761 762 761 759 761 761 760 760 759 759 759 757 756 755 754
795 797 799 797 791 787 787 784 784 788 788 790 792 787 784 784 779 774 771 771 770 769 772 774 774 778 781 781 782 784 780 778 778 777 777 775 772 768 764 761 762 763 763 763 763 769 780 785 784 786 787 786 787 783 779 780 781 780 777 773 771 772 773 777 782 781 780 786 789 778 772 774 768 760 762 765 764 763 762 761 762 761 761 761 760 758 756 755
800 800 800 802 802 797 795 793 790 790 789 788 789 787 786 785 783 780 776 772 770 770 774 778 777 778 781 781 783 784 781 781 781 780 780 780 779 778 773 768 767 767 767 768 766 768 778 783 781 782 783 781 780 779 778 779 778 776 775 773 772 774 777 778 779 776 777 784 783 774 773 776 769 759 761 764 764 763 763 762 761 761 761 761 761 760 759 757
806 806 802 802 804 803 801 797 793 792 790 789 788 787 786 786 784 781 777 774 775 775 778 783 783 779 778 778 783 788 787 786 788 787 788 789 788 786 784 777 770 767 769 771 768 768 775 780 777 778 779 777 777 776 775 775 776 774 771 771 773 775 775 776 776 775 776 778 775 772 774 774 767 762 761 760 761 762 761 761 760 760 761 762 763 762 761 759
814 814 810 807 807 804 800 797 794 793 789 787 788 786 783 783 783 780 777 778 783 781 780 785 785 782 781 781 785 791 790 790 792 791 790 792 790 789 789 784 776 772 771 773 771 770 776 779 774 773 778 777 774 773 773 774 775 773 770 771 774 773 772 774 775 773 774 775 772 772 774 769 763 761 759 756 757 758 759 760 760 761 763 763 763 762 760 759
818 818 815 814 811 805 801 798 796 795 792 789 788 784 782 783 783 782 781 780 782 783 782 784 786 785 785 784 785 788 788 788 790 788 786 788 788 788 788 785 782 781 778 776 775 774 778 781 775 775 782 781 774 772 773 773 774 774 774 775 775 772 772 772 771 770 771 772 772 774 776 770 760 759 758 755 755 757 760 761 762 763 762 762 762 761 759 757
819 816 814 816 814 806 803 801 796 796 795 790 787 784 783 783 782 784 788 784 779 781 784 786 788 789 790 790 788 788 787 786 785 784 783 784 783 784 785 783 784 785 784 780 779 777 779 782 782 783 786 783 776 773 775 779 783 780 773 770 769 768 769 769 768 767 766 768 771 773 772 765 758 758 760 759 759 760 762 762 763 763 762 761 760 759 757 756